| time (UTC) | temp F | wind direction | speed MPH | gust MPH | rain 1hr in | rain 24hr in | rain mn in | humidity % | barometer mb |
| 20260510060735 | 71 | 151 | 0.0 | 0.0 | 0.00 | 0.00 | 0.00 | 96 | 1014.3 |
| 20260510060233 | 71 | 151 | 0.0 | 0.0 | 0.00 | 0.00 | 0.00 | 96 | 1014.6 |
| 20260510055729 | 71 | 151 | 0.0 | 0.0 | 0.00 | 0.00 | 0.00 | 96 | 1014.5 |
| 20260510055227 | 71 | 151 | 0.0 | 0.0 | 0.00 | 0.00 | 0.00 | 96 | 1014.6 |
| 20260510054721 | 71 | 151 | 0.0 | 0.0 | 0.00 | 0.00 | 0.00 | 96 | 1014.6 |
| 20260510054218 | 71 | 151 | 0.0 | 0.0 | 0.00 | 0.00 | 0.00 | 96 | 1014.9 |
| 20260510053717 | 71 | 151 | 0.0 | 0.0 | 0.00 | 0.00 | 0.00 | 96 | 1014.6 |
| 20260510053214 | 71 | 151 | 0.0 | 0.0 | 0.00 | 0.00 | 0.00 | 96 | 1015.0 |
| 20260510052709 | 71 | 151 | 0.0 | 0.0 | 0.00 | 0.00 | 0.00 | 96 | 1014.9 |
| 20260510052206 | 71 | 151 | 0.0 | 0.0 | 0.00 | 0.00 | 0.00 | 96 | 1015.0 |
| 20260510051702 | 71 | 151 | 0.0 | 0.0 | 0.00 | 0.00 | 0.00 | 96 | 1015.1 |
| 20260510051159 | 71 | 151 | 0.0 | 0.0 | 0.00 | 0.00 | 0.00 | 96 | 1015.3 |
| 20260510050656 | 71 | 151 | 0.0 | 0.0 | 0.00 | 0.00 | 0.00 | 96 | 1015.2 |
| 20260510050153 | 71 | 151 | 0.0 | 0.0 | 0.00 | 0.00 | 0.00 | 96 | 1015.3 |
| 20260510045649 | 71 | 151 | 0.0 | 0.0 | 0.00 | 0.00 | 0.00 | 96 | 1015.1 |
| 20260510045147 | 71 | 151 | 0.0 | 0.0 | 0.00 | 0.00 | 0.00 | 96 | 1015.2 |
| 20260510044642 | 71 | 151 | 0.0 | 0.0 | 0.00 | 0.00 | 0.00 | 96 | 1015.3 |
| 20260510044140 | 71 | 151 | 0.0 | 0.0 | 0.00 | 0.00 | 0.00 | 96 | 1015.2 |
| 20260510043636 | 71 | 151 | 0.0 | 0.0 | 0.00 | 0.00 | 0.00 | 96 | 1015.3 |
| 20260510043132 | 71 | 151 | 0.0 | 0.0 | 0.00 | 0.00 | 0.00 | 96 | 1015.1 |
| 20260510042630 | 71 | 151 | 0.0 | 0.0 | 0.00 | 0.00 | 0.00 | 96 | 1015.2 |
| 20260510042126 | 71 | 151 | 0.0 | 0.0 | 0.00 | 0.00 | 0.00 | 96 | 1015.2 |
| 20260510041623 | 71 | 151 | 0.0 | 0.0 | 0.00 | 0.00 | 0.00 | 96 | 1015.3 |
| 20260510041120 | 71 | 151 | 0.0 | 0.0 | 0.00 | 0.00 | 0.00 | 96 | 1015.2 |
| 20260510040618 | 71 | 151 | 0.0 | 0.0 | 0.00 | 0.00 | 0.00 | 96 | 1015.0 |
| 20260510040114 | 71 | 151 | 0.0 | 0.0 | 0.00 | 0.00 | 0.00 | 96 | 1015.1 |
| 20260510035609 | 71 | 151 | 0.0 | 0.0 | 0.00 | 0.22 | 0.22 | 96 | 1014.9 |
| 20260510035104 | 71 | 151 | 0.0 | 0.0 | 0.00 | 0.22 | 0.22 | 96 | 1015.1 |
| 20260510034602 | 71 | 151 | 0.0 | 0.0 | 0.00 | 0.22 | 0.22 | 96 | 1015.0 |
| 20260510034059 | 71 | 131 | 1.0 | 1.0 | 0.00 | 0.22 | 0.22 | 96 | 1015.4 |
| 20260510033555 | 71 | 57 | 0.0 | 0.0 | 0.00 | 0.22 | 0.22 | 96 | 1015.5 |
| 20260510033053 | 71 | 56 | 0.0 | 0.0 | 0.00 | 0.22 | 0.22 | 96 | 1015.3 |
| 20260510032549 | 71 | 54 | 0.0 | 0.0 | 0.00 | 0.22 | 0.22 | 95 | 1015.5 |
| 20260510032044 | 71 | 54 | 0.0 | 0.0 | 0.00 | 0.22 | 0.22 | 95 | 1015.0 |
| 20260510031539 | 71 | 59 | 0.0 | 0.0 | 0.00 | 0.22 | 0.22 | 95 | 1015.2 |
| 20260510031035 | 71 | 69 | 1.0 | 1.0 | 0.00 | 0.22 | 0.22 | 95 | 1015.2 |
| 20260510030531 | 71 | 73 | 1.0 | 1.0 | 0.00 | 0.22 | 0.22 | 95 | 1014.7 |
| 20260510030029 | 71 | 349 | 1.0 | 1.0 | 0.00 | 0.22 | 0.22 | 95 | 1014.9 |
| 20260510025525 | 71 | 110 | 0.0 | 0.0 | 0.00 | 0.22 | 0.22 | 95 | 1014.8 |
| 20260510025023 | 71 | 125 | 0.0 | 0.0 | 0.00 | 0.22 | 0.22 | 95 | 1015.0 |
| 20260510024520 | 71 | 124 | 0.0 | 0.0 | 0.00 | 0.22 | 0.22 | 95 | 1014.7 |
| 20260510024015 | 71 | 126 | 0.0 | 0.0 | 0.00 | 0.22 | 0.22 | 95 | 1014.7 |
| 20260510023511 | 71 | 127 | 0.0 | 0.0 | 0.00 | 0.22 | 0.22 | 95 | 1014.6 |
| 20260510023009 | 71 | 126 | 0.0 | 0.0 | 0.00 | 0.22 | 0.22 | 95 | 1014.5 |
| 20260510022508 | 71 | 61 | 1.0 | 1.0 | 0.00 | 0.22 | 0.22 | 95 | 1014.4 |
| 20260510022008 | 71 | 233 | 0.0 | 0.0 | 0.00 | 0.22 | 0.22 | 95 | 1014.3 |
| 20260510021505 | 71 | 233 | 0.0 | 0.0 | 0.00 | 0.22 | 0.22 | 95 | 1014.2 |
| 20260510021002 | 71 | 232 | 0.0 | 0.0 | 0.00 | 0.22 | 0.22 | 95 | 1014.4 |
| 20260510020456 | 71 | 228 | 1.0 | 1.0 | 0.00 | 0.22 | 0.22 | 95 | 1014.4 |
| 20260510015952 | 71 | 218 | 1.0 | 1.0 | 0.00 | 0.22 | 0.22 | 95 | 1014.6 |
| 20260510015448 | 71 | 283 | 2.0 | 2.0 | 0.00 | 0.22 | 0.22 | 95 | 1014.3 |
| 20260510014944 | 71 | 228 | 2.0 | 2.0 | 0.00 | 0.22 | 0.22 | 95 | 1014.4 |
| 20260510014442 | 71 | 206 | 1.0 | 1.0 | 0.00 | 0.22 | 0.22 | 95 | 1014.2 |
| 20260510013938 | 71 | 215 | 0.0 | 0.0 | 0.00 | 0.22 | 0.22 | 94 | 1014.2 |
| 20260510013432 | 71 | 215 | 0.0 | 0.0 | 0.00 | 0.22 | 0.22 | 94 | 1013.6 |
| 20260510012928 | 71 | 215 | 0.0 | 0.0 | 0.00 | 0.22 | 0.22 | 94 | 1014.1 |
| 20260510012423 | 71 | 215 | 0.0 | 0.0 | 0.00 | 0.22 | 0.22 | 94 | 1013.8 |
| 20260510011918 | 71 | 215 | 0.0 | 0.0 | 0.00 | 0.22 | 0.22 | 94 | 1014.0 |
| 20260510011414 | 71 | 215 | 1.0 | 1.0 | 0.00 | 0.22 | 0.22 | 94 | 1014.1 |
| 20260510010910 | 71 | 171 | 1.0 | 1.0 | 0.00 | 0.22 | 0.22 | 94 | 1013.9 |
| 20260510010408 | 71 | 165 | 0.0 | 0.0 | 0.00 | 0.22 | 0.22 | 94 | 1013.5 |
| 20260510005904 | 71 | 146 | 1.0 | 2.0 | 0.00 | 0.22 | 0.22 | 94 | 1013.5 |
| 20260510005400 | 71 | 163 | 0.0 | 0.0 | 0.00 | 0.22 | 0.22 | 94 | 1013.4 |
| 20260510004858 | 71 | 163 | 0.0 | 0.0 | 0.00 | 0.22 | 0.22 | 94 | 1013.5 |
| 20260510004355 | 71 | 163 | 1.0 | 1.0 | 0.00 | 0.22 | 0.22 | 94 | 1013.5 |
| 20260510003853 | 71 | 155 | 2.0 | 2.0 | 0.00 | 0.22 | 0.22 | 93 | 1013.9 |
| 20260510003350 | 71 | 185 | 0.0 | 0.0 | 0.05 | 0.22 | 0.22 | 93 | 1013.7 |
| 20260510002848 | 71 | 184 | 1.0 | 1.0 | 0.05 | 0.22 | 0.22 | 93 | 1014.0 |
| 20260510002346 | 72 | 173 | 1.0 | 1.0 | 0.00 | 0.21 | 0.21 | 93 | 1013.7 |
| 20260510001842 | 72 | 225 | 1.0 | 1.0 | 0.00 | 0.21 | 0.21 | 93 | 1014.2 |
| 20260510001341 | 72 | 235 | 0.0 | 0.0 | 0.00 | 0.21 | 0.21 | 93 | 1014.1 |
| 20260510000836 | 72 | 235 | 1.0 | 1.0 | 0.00 | 0.21 | 0.21 | 93 | 1014.1 |
| 20260510000334 | 72 | 203 | 0.0 | 1.0 | 0.00 | 0.21 | 0.21 | 93 | 1014.0 |
| 20260509235830 | 72 | 202 | 0.0 | 0.0 | 0.00 | 0.21 | 0.21 | 92 | 1013.9 |
| 20260509235327 | 72 | 202 | 0.0 | 0.0 | 0.00 | 0.21 | 0.21 | 92 | 1013.9 |
| 20260509234823 | 72 | 359 | 0.0 | 0.0 | 0.00 | 0.21 | 0.21 | 92 | 1014.0 |
| 20260509234320 | 72 | 31 | 0.0 | 0.0 | 0.00 | 0.21 | 0.21 | 92 | 1013.8 |
| 20260509233818 | 72 | 32 | 0.0 | 0.0 | 0.00 | 0.21 | 0.21 | 92 | 1013.8 |
| 20260509233315 | 72 | 33 | 0.0 | 1.0 | 0.00 | 0.21 | 0.21 | 91 | 1013.7 |
| 20260509232811 | 72 | 34 | 0.0 | 0.0 | 0.00 | 0.21 | 0.21 | 91 | 1013.8 |
| 20260509232309 | 72 | 108 | 1.0 | 1.0 | 0.00 | 0.21 | 0.21 | 90 | 1013.7 |
| 20260509231804 | 72 | 124 | 0.0 | 0.0 | 0.00 | 0.21 | 0.21 | 90 | 1013.7 |
| 20260509231301 | 72 | 101 | 0.0 | 0.0 | 0.00 | 0.21 | 0.21 | 90 | 1013.8 |
| 20260509230759 | 72 | 102 | 0.0 | 0.0 | 0.00 | 0.21 | 0.21 | 90 | 1013.7 |
| 20260509230257 | 72 | 125 | 2.0 | 2.0 | 0.00 | 0.21 | 0.21 | 91 | 1013.8 |
| 20260509225751 | 72 | 101 | 0.0 | 0.0 | 0.00 | 0.21 | 0.21 | 91 | 1013.8 |
| 20260509225248 | 72 | 124 | 3.0 | 2.0 | 0.00 | 0.21 | 0.21 | 92 | 1013.7 |
| 20260509224743 | 71 | 93 | 1.0 | 1.0 | 0.00 | 0.21 | 0.21 | 92 | 1013.8 |
| 20260509224241 | 71 | 80 | 2.0 | 2.0 | 0.00 | 0.21 | 0.21 | 92 | 1013.8 |
| 20260509223738 | 71 | 98 | 2.0 | 2.0 | 0.00 | 0.21 | 0.21 | 93 | 1013.7 |
| 20260509223235 | 71 | 77 | 1.0 | 1.0 | 0.00 | 0.21 | 0.21 | 93 | 1013.7 |
| 20260509222731 | 72 | 83 | 1.0 | 1.0 | 0.00 | 0.21 | 0.21 | 93 | 1013.6 |
| 20260509222226 | 72 | 93 | 1.0 | 1.0 | 0.00 | 0.21 | 0.21 | 94 | 1013.4 |
| 20260509221722 | 72 | 100 | 0.0 | 0.0 | 0.00 | 0.21 | 0.21 | 93 | 1013.5 |
| 20260509221219 | 72 | 113 | 0.0 | 0.0 | 0.00 | 0.21 | 0.21 | 94 | 1013.5 |
| 20260509220715 | 72 | 123 | 1.0 | 1.0 | 0.00 | 0.21 | 0.21 | 94 | 1013.4 |
| 20260509220212 | 72 | 152 | 0.0 | 1.0 | 0.00 | 0.21 | 0.21 | 94 | 1013.5 |
| 20260509215707 | 72 | 152 | 1.0 | 2.0 | 0.00 | 0.21 | 0.21 | 94 | 1013.7 |
| 20260509215204 | 72 | 145 | 1.0 | 1.0 | 0.00 | 0.21 | 0.21 | 94 | 1013.6 |
| 20260509214701 | 72 | 205 | 1.0 | 2.0 | 0.00 | 0.21 | 0.21 | 94 | 1013.5 |
| 20260509214158 | 72 | 87 | 0.0 | 0.0 | 0.00 | 0.21 | 0.21 | 94 | 1013.8 |
| 20260509213655 | 72 | 353 | 3.0 | 3.0 | 0.00 | 0.21 | 0.21 | 94 | 1013.6 |
| 20260509213150 | 72 | 37 | 1.0 | 1.0 | 0.00 | 0.21 | 0.21 | 94 | 1013.3 |
| 20260509212648 | 72 | 42 | 2.0 | 2.0 | 0.00 | 0.21 | 0.21 | 94 | 1013.6 |
| 20260509212145 | 72 | 79 | 2.0 | 2.0 | 0.00 | 0.21 | 0.21 | 94 | 1013.6 |
| 20260509211641 | 72 | 14 | 1.0 | 2.0 | 0.00 | 0.21 | 0.21 | 94 | 1013.8 |
| 20260509211138 | 72 | 8 | 3.0 | 3.0 | 0.07 | 0.21 | 0.21 | 94 | 1013.7 |
| 20260509210635 | 72 | 52 | 3.0 | 3.0 | 0.07 | 0.21 | 0.21 | 93 | 1014.0 |
| 20260509210132 | 72 | 84 | 0.0 | 1.0 | 0.05 | 0.20 | 0.20 | 94 | 1014.1 |
| 20260509205627 | 72 | 64 | 1.0 | 1.0 | 0.05 | 0.20 | 0.20 | 93 | 1013.9 |
| 20260509205121 | 72 | 29 | 1.0 | 2.0 | 0.00 | 0.19 | 0.19 | 93 | 1014.0 |
| 20260509204618 | 72 | 358 | 1.0 | 1.0 | 0.00 | 0.19 | 0.19 | 93 | 1014.1 |
| 20260509204114 | 72 | 3 | 2.0 | 3.0 | 0.00 | 0.19 | 0.19 | 93 | 1013.9 |
| 20260509203610 | 72 | 323 | 5.0 | 7.0 | 0.07 | 0.19 | 0.19 | 93 | 1013.8 |
| 20260509203108 | 72 | 335 | 3.0 | 3.0 | 0.07 | 0.19 | 0.19 | 93 | 1013.6 |
| 20260509202603 | 72 | 29 | 1.0 | 2.0 | 0.05 | 0.18 | 0.18 | 93 | 1013.7 |
| 20260509202058 | 72 | 346 | 3.0 | 3.0 | 0.05 | 0.18 | 0.18 | 92 | 1013.6 |
| 20260509201553 | 72 | 304 | 3.0 | 3.0 | 0.00 | 0.17 | 0.17 | 92 | 1013.5 |
| 20260509201052 | 72 | 51 | 3.0 | 5.0 | 0.07 | 0.17 | 0.17 | 92 | 1013.5 |
| 20260509200550 | 72 | 323 | 5.0 | 7.0 | 0.24 | 0.17 | 0.17 | 91 | 1013.8 |
| 20260509200048 | 72 | 271 | 4.0 | 6.0 | 0.24 | 0.16 | 0.16 | 91 | 1013.7 |
| 20260509195543 | 73 | 10 | 5.0 | 8.0 | 0.12 | 0.14 | 0.14 | 90 | 1013.6 |
| 20260509195037 | 74 | 319 | 5.0 | 7.0 | 0.12 | 0.12 | 0.12 | 90 | 1013.7 |
| 20260509194532 | 74 | 80 | 2.0 | 2.0 | 0.12 | 0.11 | 0.11 | 90 | 1013.5 |
| 20260509194031 | 75 | 293 | 4.0 | 6.0 | 0.19 | 0.10 | 0.10 | 89 | 1013.6 |
| 20260509193530 | 75 | 193 | 1.0 | 1.0 | 0.24 | 0.09 | 0.09 | 89 | 1013.4 |
| 20260509193027 | 75 | 167 | 3.0 | 3.0 | 0.17 | 0.07 | 0.07 | 88 | 1013.3 |
| 20260509192524 | 75 | 209 | 3.0 | 3.0 | 0.05 | 0.05 | 0.05 | 88 | 1013.5 |
| 20260509192019 | 75 | 179 | 5.0 | 5.0 | 0.00 | 0.04 | 0.04 | 87 | 1013.4 |
| 20260509191514 | 75 | 142 | 4.0 | 3.0 | 0.00 | 0.04 | 0.04 | 86 | 1013.5 |
| 20260509191010 | 75 | 157 | 4.0 | 6.0 | 0.00 | 0.04 | 0.04 | 85 | 1013.3 |
| 20260509190507 | 75 | 173 | 5.0 | 5.0 | 0.00 | 0.04 | 0.04 | 84 | 1013.2 |
| 20260509190006 | 76 | 191 | 3.0 | 3.0 | 0.00 | 0.04 | 0.04 | 83 | 1013.1 |
| 20260509185502 | 76 | 159 | 3.0 | 3.0 | 0.00 | 0.04 | 0.04 | 84 | 1013.3 |
| 20260509184958 | 76 | 156 | 3.0 | 3.0 | 0.00 | 0.04 | 0.04 | 84 | 1013.4 |
| 20260509184457 | 76 | 168 | 6.0 | 7.0 | 0.00 | 0.04 | 0.04 | 83 | 1013.4 |
| 20260509183952 | 76 | 188 | 5.0 | 6.0 | 0.00 | 0.04 | 0.04 | 82 | 1013.4 |
| 20260509183447 | 76 | 86 | 2.0 | 3.0 | 0.00 | 0.04 | 0.04 | 84 | 1013.6 |
| 20260509182944 | 76 | 121 | 2.0 | 3.0 | 0.00 | 0.04 | 0.04 | 84 | 1013.6 |
| 20260509182440 | 75 | 96 | 5.0 | 7.0 | 0.00 | 0.04 | 0.04 | 84 | 1013.6 |
| 20260509181937 | 76 | 133 | 5.0 | 6.0 | 0.00 | 0.04 | 0.04 | 84 | 1013.6 |
| 20260509181435 | 75 | 106 | 4.0 | 7.0 | 0.00 | 0.04 | 0.04 | 84 | 1013.5 |
| 20260509180933 | 76 | 97 | 6.0 | 7.0 | 0.00 | 0.04 | 0.04 | 83 | 1013.6 |
| 20260509180428 | 76 | 94 | 5.0 | 6.0 | 0.00 | 0.04 | 0.04 | 83 | 1013.5 |
| 20260509175925 | 76 | 92 | 5.0 | 5.0 | 0.00 | 0.04 | 0.04 | 82 | 1013.7 |
| 20260509175421 | 76 | 121 | 5.0 | 6.0 | 0.00 | 0.04 | 0.04 | 83 | 1013.8 |
| 20260509174917 | 76 | 106 | 4.0 | 5.0 | 0.00 | 0.04 | 0.04 | 82 | 1013.9 |
| 20260509174414 | 76 | 118 | 5.0 | 5.0 | 0.00 | 0.04 | 0.04 | 82 | 1013.7 |
| 20260509173909 | 76 | 112 | 4.0 | 6.0 | 0.00 | 0.04 | 0.04 | 82 | 1014.0 |
| 20260509173404 | 76 | 130 | 6.0 | 6.0 | 0.00 | 0.04 | 0.04 | 81 | 1013.9 |
| 20260509172900 | 76 | 105 | 5.0 | 6.0 | 0.00 | 0.04 | 0.04 | 82 | 1013.7 |
| 20260509172357 | 75 | 100 | 4.0 | 5.0 | 0.00 | 0.04 | 0.04 | 82 | 1013.8 |
| 20260509171853 | 76 | 105 | 4.0 | 5.0 | 0.00 | 0.04 | 0.04 | 82 | 1013.8 |
| 20260509171349 | 76 | 108 | 4.0 | 5.0 | 0.00 | 0.04 | 0.04 | 81 | 1014.0 |
| 20260509170846 | 77 | 107 | 4.0 | 5.0 | 0.00 | 0.04 | 0.04 | 79 | 1014.3 |
| 20260509170341 | 77 | 101 | 4.0 | 5.0 | 0.00 | 0.04 | 0.04 | 78 | 1014.1 |
| 20260509165836 | 77 | 132 | 4.0 | 5.0 | 0.00 | 0.04 | 0.04 | 79 | 1014.0 |
| 20260509165331 | 77 | 120 | 3.0 | 5.0 | 0.00 | 0.04 | 0.04 | 79 | 1014.1 |
| 20260509164827 | 77 | 82 | 3.0 | 5.0 | 0.00 | 0.04 | 0.04 | 80 | 1014.0 |
| 20260509164324 | 78 | 108 | 5.0 | 6.0 | 0.00 | 0.04 | 0.04 | 77 | 1014.2 |
| 20260509163820 | 77 | 83 | 2.0 | 2.0 | 0.00 | 0.04 | 0.04 | 77 | 1014.5 |
| 20260509163316 | 78 | 82 | 4.0 | 5.0 | 0.00 | 0.04 | 0.04 | 76 | 1014.3 |
| 20260509162816 | 78 | 101 | 1.0 | 1.0 | 0.00 | 0.04 | 0.04 | 75 | 1014.4 |
| 20260509162309 | 80 | 89 | 2.0 | 3.0 | 0.00 | 0.04 | 0.04 | 73 | 1014.3 |
| 20260509161805 | 79 | 122 | 1.0 | 1.0 | 0.00 | 0.04 | 0.04 | 74 | 1014.5 |
| 20260509161301 | 78 | 96 | 0.0 | 0.0 | 0.00 | 0.04 | 0.04 | 76 | 1014.4 |
| 20260509160757 | 78 | 135 | 0.0 | 1.0 | 0.00 | 0.04 | 0.04 | 76 | 1014.1 |
| 20260509160253 | 78 | 94 | 0.0 | 0.0 | 0.00 | 0.04 | 0.04 | 76 | 1014.0 |
| 20260509155748 | 78 | 90 | 3.0 | 5.0 | 0.00 | 0.04 | 0.04 | 76 | 1013.9 |
| 20260509155245 | 78 | 99 | 0.0 | 1.0 | 0.00 | 0.04 | 0.04 | 75 | 1013.8 |
| 20260509154741 | 79 | 98 | 2.0 | 2.0 | 0.00 | 0.04 | 0.04 | 73 | 1014.1 |
| 20260509154239 | 79 | 154 | 1.0 | 1.0 | 0.00 | 0.04 | 0.04 | 73 | 1014.2 |
| 20260509153736 | 79 | 344 | 1.0 | 2.0 | 0.00 | 0.04 | 0.04 | 73 | 1014.3 |
| 20260509153231 | 78 | 109 | 1.0 | 1.0 | 0.00 | 0.04 | 0.04 | 73 | 1014.4 |
| 20260509152728 | 77 | 115 | 1.0 | 1.0 | 0.00 | 0.04 | 0.04 | 74 | 1014.5 |
| 20260509152224 | 76 | 73 | 0.0 | 0.0 | 0.00 | 0.04 | 0.04 | 76 | 1014.5 |
| 20260509151721 | 76 | 333 | 1.0 | 2.0 | 0.00 | 0.04 | 0.04 | 76 | 1014.6 |
| 20260509151218 | 76 | 145 | 1.0 | 1.0 | 0.00 | 0.04 | 0.04 | 78 | 1014.4 |
| 20260509150716 | 75 | 15 | 2.0 | 2.0 | 0.00 | 0.04 | 0.04 | 79 | 1014.9 |
| 20260509150214 | 75 | 26 | 2.0 | 3.0 | 0.00 | 0.04 | 0.04 | 79 | 1015.1 |
| 20260509145710 | 75 | 9 | 2.0 | 2.0 | 0.00 | 0.04 | 0.04 | 79 | 1015.0 |
| 20260509145206 | 75 | 66 | 2.0 | 2.0 | 0.00 | 0.04 | 0.04 | 79 | 1015.2 |
| 20260509144702 | 75 | 13 | 3.0 | 3.0 | 0.00 | 0.04 | 0.04 | 79 | 1015.3 |
| 20260509144200 | 76 | 316 | 2.0 | 3.0 | 0.00 | 0.04 | 0.04 | 79 | 1014.9 |
| 20260509143657 | 76 | 7 | 2.0 | 2.0 | 0.00 | 0.04 | 0.04 | 78 | 1014.8 |
| 20260509143154 | 77 | 138 | 1.0 | 1.0 | 0.00 | 0.04 | 0.04 | 78 | 1014.6 |
| 20260509142649 | 77 | 172 | 1.0 | 2.0 | 0.00 | 0.04 | 0.04 | 77 | 1014.8 |
| 20260509142146 | 77 | 6 | 1.0 | 1.0 | 0.00 | 0.04 | 0.04 | 75 | 1014.7 |
| 20260509141642 | 77 | 53 | 1.0 | 1.0 | 0.00 | 0.04 | 0.04 | 76 | 1014.6 |
| 20260509141138 | 76 | 276 | 2.0 | 3.0 | 0.00 | 0.04 | 0.04 | 77 | 1015.0 |
| 20260509140635 | 76 | 305 | 3.0 | 5.0 | 0.00 | 0.04 | 0.04 | 77 | 1014.8 |
| 20260509140133 | 76 | 61 | 1.0 | 1.0 | 0.00 | 0.04 | 0.04 | 79 | 1014.5 |
| 20260509135630 | 75 | 84 | 1.0 | 1.0 | 0.00 | 0.04 | 0.04 | 79 | 1014.5 |
| 20260509135129 | 75 | 288 | 3.0 | 3.0 | 0.00 | 0.04 | 0.04 | 80 | 1014.7 |
| 20260509134625 | 75 | 275 | 0.0 | 0.0 | 0.00 | 0.04 | 0.04 | 80 | 1014.6 |
| 20260509134122 | 75 | 292 | 1.0 | 1.0 | 0.00 | 0.04 | 0.04 | 80 | 1014.5 |
| 20260509133620 | 74 | 25 | 1.0 | 1.0 | 0.00 | 0.04 | 0.04 | 80 | 1014.5 |
| 20260509133117 | 74 | 29 | 0.0 | 0.0 | 0.00 | 0.04 | 0.04 | 81 | 1014.0 |
| 20260509132615 | 74 | 328 | 2.0 | 2.0 | 0.00 | 0.04 | 0.04 | 82 | 1014.1 |
| 20260509132113 | 74 | 85 | 0.0 | 0.0 | 0.00 | 0.04 | 0.04 | 83 | 1014.2 |
| 20260509131608 | 74 | 19 | 2.0 | 2.0 | 0.00 | 0.04 | 0.04 | 84 | 1013.9 |
| 20260509131106 | 73 | 334 | 0.0 | 0.0 | 0.00 | 0.04 | 0.04 | 84 | 1014.0 |
| 20260509130601 | 73 | 309 | 1.0 | 2.0 | 0.00 | 0.04 | 0.04 | 84 | 1014.2 |
| 20260509130058 | 74 | 326 | 4.0 | 6.0 | 0.00 | 0.04 | 0.04 | 84 | 1014.2 |
| 20260509125555 | 74 | 317 | 1.0 | 1.0 | 0.00 | 0.04 | 0.04 | 84 | 1014.1 |
| 20260509125052 | 74 | 15 | 1.0 | 1.0 | 0.00 | 0.04 | 0.04 | 84 | 1013.9 |
| 20260509124548 | 74 | 60 | 1.0 | 1.0 | 0.00 | 0.04 | 0.04 | 84 | 1013.8 |
| 20260509124045 | 73 | 55 | 1.0 | 1.0 | 0.00 | 0.04 | 0.04 | 86 | 1013.8 |
| 20260509123543 | 73 | 55 | 0.0 | 0.0 | 0.00 | 0.04 | 0.04 | 87 | 1013.7 |
| 20260509123039 | 72 | 40 | 1.0 | 1.0 | 0.00 | 0.04 | 0.04 | 88 | 1013.9 |
| 20260509122536 | 72 | 4 | 1.0 | 1.0 | 0.00 | 0.04 | 0.04 | 89 | 1013.7 |
| 20260509122033 | 71 | 16 | 1.0 | 2.0 | 0.00 | 0.04 | 0.04 | 90 | 1013.9 |
| 20260509121529 | 71 | 51 | 0.0 | 0.0 | 0.00 | 0.04 | 0.04 | 90 | 1013.9 |
| 20260509121027 | 71 | 56 | 1.0 | 1.0 | 0.00 | 0.04 | 0.04 | 91 | 1013.9 |
| 20260509120525 | 71 | 340 | 2.0 | 2.0 | 0.00 | 0.04 | 0.04 | 91 | 1013.7 |
| 20260509120023 | 71 | 351 | 2.0 | 2.0 | 0.00 | 0.04 | 0.04 | 91 | 1013.8 |
| 20260509115520 | 70 | 14 | 1.0 | 1.0 | 0.00 | 0.04 | 0.04 | 91 | 1013.6 |
| 20260509115018 | 70 | 57 | 1.0 | 1.0 | 0.00 | 0.04 | 0.04 | 91 | 1013.6 |
| 20260509114515 | 70 | 57 | 0.0 | 0.0 | 0.00 | 0.04 | 0.04 | 91 | 1013.6 |
| 20260509114014 | 70 | 333 | 3.0 | 3.0 | 0.00 | 0.04 | 0.04 | 91 | 1013.5 |
| 20260509113512 | 69 | 12 | 2.0 | 2.0 | 0.00 | 0.04 | 0.04 | 91 | 1013.7 |
| 20260509113010 | 69 | 43 | 4.0 | 5.0 | 0.00 | 0.04 | 0.04 | 91 | 1013.6 |
| 20260509112506 | 69 | 321 | 1.0 | 2.0 | 0.00 | 0.04 | 0.04 | 91 | 1013.6 |
| 20260509112002 | 69 | 316 | 3.0 | 2.0 | 0.00 | 0.04 | 0.04 | 91 | 1013.3 |
| 20260509111500 | 69 | 304 | 2.0 | 2.0 | 0.00 | 0.04 | 0.04 | 91 | 1013.2 |
| 20260509110957 | 69 | 324 | 1.0 | 1.0 | 0.00 | 0.04 | 0.04 | 90 | 1013.0 |
| 20260509110453 | 69 | 344 | 1.0 | 1.0 | 0.00 | 0.04 | 0.04 | 90 | 1013.0 |
| 20260509105951 | 69 | 336 | 1.0 | 1.0 | 0.00 | 0.04 | 0.04 | 90 | 1013.1 |
| 20260509105449 | 69 | 315 | 2.0 | 2.0 | 0.00 | 0.04 | 0.04 | 90 | 1013.0 |
| 20260509104946 | 69 | 301 | 1.0 | 1.0 | 0.00 | 0.04 | 0.04 | 90 | 1012.6 |
| 20260509104443 | 69 | 308 | 3.0 | 2.0 | 0.00 | 0.04 | 0.04 | 89 | 1012.6 |
| 20260509103940 | 70 | 304 | 4.0 | 3.0 | 0.00 | 0.04 | 0.04 | 89 | 1012.7 |
| 20260509103438 | 70 | 277 | 3.0 | 3.0 | 0.00 | 0.04 | 0.04 | 88 | 1012.6 |
| 20260509102936 | 70 | 296 | 2.0 | 2.0 | 0.00 | 0.04 | 0.04 | 88 | 1012.5 |
| 20260509102433 | 70 | 209 | 1.0 | 1.0 | 0.00 | 0.04 | 0.04 | 87 | 1012.6 |
| 20260509101929 | 71 | 321 | 3.0 | 5.0 | 0.00 | 0.04 | 0.04 | 86 | 1012.6 |
| 20260509101425 | 71 | 303 | 2.0 | 2.0 | 0.00 | 0.04 | 0.04 | 87 | 1012.2 |
| 20260509100923 | 71 | 183 | 1.0 | 1.0 | 0.00 | 0.04 | 0.04 | 87 | 1011.8 |
| 20260509100420 | 71 | 190 | 4.0 | 6.0 | 0.00 | 0.04 | 0.04 | 87 | 1011.5 |
| 20260509095916 | 71 | 185 | 5.0 | 5.0 | 0.00 | 0.04 | 0.04 | 87 | 1011.7 |
| 20260509095414 | 71 | 172 | 5.0 | 7.0 | 0.00 | 0.04 | 0.04 | 87 | 1011.9 |
| 20260509094911 | 71 | 85 | 5.0 | 6.0 | 0.00 | 0.04 | 0.04 | 87 | 1011.7 |
| 20260509094407 | 71 | 206 | 4.0 | 5.0 | 0.00 | 0.04 | 0.04 | 87 | 1011.6 |
| 20260509093905 | 71 | 180 | 7.0 | 10.0 | 0.00 | 0.04 | 0.04 | 87 | 1011.5 |
| 20260509093402 | 71 | 190 | 5.0 | 7.0 | 0.00 | 0.04 | 0.04 | 86 | 1011.2 |
| 20260509092900 | 71 | 186 | 7.0 | 8.0 | 0.00 | 0.04 | 0.04 | 86 | 1011.5 |
| 20260509092357 | 71 | 188 | 7.0 | 8.0 | 0.00 | 0.04 | 0.04 | 86 | 1011.6 |
| 20260509091856 | 71 | 152 | 2.0 | 3.0 | 0.00 | 0.04 | 0.04 | 87 | 1011.8 |
| 20260509091352 | 71 | 215 | 7.0 | 9.0 | 0.00 | 0.04 | 0.04 | 87 | 1011.5 |
| 20260509090850 | 70 | 160 | 11.0 | 15.0 | 0.00 | 0.04 | 0.04 | 87 | 1011.2 |
| 20260509090347 | 70 | 197 | 11.0 | 13.0 | 0.00 | 0.04 | 0.04 | 89 | 1011.7 |
| 20260509085844 | 69 | 183 | 5.0 | 7.0 | 0.00 | 0.04 | 0.04 | 89 | 1012.1 |
| 20260509085341 | 69 | 181 | 2.0 | 2.0 | 0.00 | 0.04 | 0.04 | 89 | 1012.4 |
| 20260509084838 | 69 | 193 | 0.0 | 0.0 | 0.00 | 0.04 | 0.04 | 89 | 1012.6 |
| 20260509084335 | 70 | 231 | 1.0 | 1.0 | 0.00 | 0.04 | 0.04 | 88 | 1012.9 |
| 20260509083833 | 70 | 296 | 2.0 | 2.0 | 0.00 | 0.04 | 0.04 | 87 | 1013.0 |
| 20260509083329 | 70 | 309 | 1.0 | 1.0 | 0.00 | 0.04 | 0.04 | 86 | 1012.9 |
| 20260509082826 | 71 | 291 | 2.0 | 2.0 | 0.00 | 0.04 | 0.04 | 84 | 1012.9 |
| 20260509082322 | 71 | 318 | 3.0 | 3.0 | 0.00 | 0.04 | 0.04 | 83 | 1013.1 |
| 20260509081820 | 72 | 21 | 1.0 | 2.0 | 0.00 | 0.04 | 0.04 | 81 | 1012.8 |
| 20260509081317 | 72 | 186 | 4.0 | 6.0 | 0.00 | 0.04 | 0.04 | 81 | 1012.7 |
| 20260509080815 | 72 | 183 | 8.0 | 9.0 | 0.00 | 0.04 | 0.04 | 82 | 1012.5 |
| 20260509080312 | 72 | 188 | 10.0 | 13.0 | 0.00 | 0.04 | 0.04 | 83 | 1012.6 |
| 20260509075810 | 71 | 184 | 7.0 | 8.0 | 0.00 | 0.04 | 0.04 | 84 | 1012.5 |
| 20260509075307 | 71 | 180 | 5.0 | 7.0 | 0.00 | 0.04 | 0.04 | 84 | 1012.5 |
| 20260509074804 | 71 | 153 | 8.0 | 9.0 | 0.00 | 0.04 | 0.04 | 84 | 1012.5 |
| 20260509074302 | 71 | 166 | 5.0 | 7.0 | 0.00 | 0.04 | 0.04 | 84 | 1012.5 |
| 20260509073758 | 71 | 164 | 6.0 | 10.0 | 0.00 | 0.04 | 0.04 | 84 | 1012.6 |
| 20260509073254 | 71 | 175 | 4.0 | 6.0 | 0.00 | 0.04 | 0.04 | 85 | 1012.9 |
| 20260509072751 | 71 | 190 | 9.0 | 9.0 | 0.00 | 0.04 | 0.04 | 85 | 1012.8 |
| 20260509072248 | 71 | 183 | 5.0 | 8.0 | 0.00 | 0.04 | 0.04 | 86 | 1012.9 |
| 20260509071744 | 71 | 180 | 7.0 | 9.0 | 0.00 | 0.04 | 0.04 | 86 | 1013.0 |
| 20260509071242 | 71 | 177 | 5.0 | 7.0 | 0.00 | 0.04 | 0.04 | 85 | 1012.9 |
| 20260509070738 | 70 | 158 | 9.0 | 10.0 | 0.00 | 0.04 | 0.04 | 85 | 1013.3 |
| 20260509070235 | 71 | 181 | 6.0 | 7.0 | 0.00 | 0.04 | 0.04 | 86 | 1013.2 |
| 20260509065731 | 70 | 180 | 7.0 | 8.0 | 0.00 | 0.04 | 0.04 | 86 | 1013.4 |
| 20260509065228 | 70 | 177 | 4.0 | 5.0 | 0.00 | 0.04 | 0.04 | 85 | 1013.4 |
| 20260509064724 | 70 | 155 | 6.0 | 9.0 | 0.00 | 0.04 | 0.04 | 86 | 1013.8 |
| 20260509064222 | 70 | 169 | 7.0 | 9.0 | 0.00 | 0.04 | 0.04 | 86 | 1013.6 |
| 20260509063719 | 70 | 177 | 5.0 | 5.0 | 0.00 | 0.04 | 0.04 | 86 | 1013.6 |
| 20260509063215 | 70 | 151 | 3.0 | 3.0 | 0.00 | 0.04 | 0.04 | 86 | 1013.4 |
| 20260509062713 | 69 | 166 | 4.0 | 5.0 | 0.00 | 0.04 | 0.04 | 86 | 1013.6 |
| 20260509062210 | 70 | 167 | 3.0 | 3.0 | 0.00 | 0.04 | 0.04 | 86 | 1013.6 |
| 20260509061707 | 70 | 93 | 4.0 | 5.0 | 0.00 | 0.04 | 0.04 | 86 | 1013.7 |
| 20260509061204 | 69 | 110 | 5.0 | 7.0 | 0.00 | 0.04 | 0.04 | 86 | 1013.8 |